Theta_e
330 330 331 330 331 331 331 334 338 340 336 335 337 336 330 333 330 327 335 337 335 336 335 336 335 332 336 336 338 343 341 346 351 349 349 344 337 340 340 339 339 338 337 338 340 340 339 338 338 340 339 337 338 338 337 337 336 337 336 335 336 336 334 333 332 331 331 330 330 330 330 330 331 333 333 333 331 332 335 335 336 334 333 331 330 329 329 330 330 329 328 328 328 327 327 327 327
330 330 331 330 330 329 334 337 341 342 339 337 336 337 334 333 330 331 338 342 341 334 333 341 343 341 342 341 339 339 338 340 342 342 341 338 339 341 339 339 339 338 337 338 340 340 339 337 338 339 338 338 338 338 337 337 336 337 336 335 337 337 335 334 332 331 331 330 329 328 329 329 329 330 331 333 333 334 335 335 335 334 332 331 332 331 330 330 328 327 327 327 327 327 327 327 327
327 330 331 331 329 330 339 338 340 339 335 337 338 339 335 331 333 333 335 341 339 331 333 339 339 340 340 340 337 337 338 339 340 340 339 340 341 340 340 340 338 338 337 339 340 339 338 336 338 339 338 339 338 338 338 337 337 337 336 336 337 337 335 334 332 331 331 330 329 328 329 330 328 328 329 331 331 334 333 332 332 332 332 331 331 331 330 329 328 326 326 326 326 327 326 326 326
326 331 330 332 332 337 348 341 344 342 334 338 337 339 340 335 335 334 333 335 334 330 333 335 335 334 334 340 338 337 340 340 340 340 340 340 340 340 340 339 339 338 337 340 340 338 337 336 337 338 339 339 339 339 338 338 338 338 336 337 337 336 335 333 331 330 330 330 329 329 328 330 328 326 328 329 329 331 331 330 330 330 331 331 331 330 329 328 327 326 326 326 326 326 326 326 326
326 332 328 331 335 339 344 337 341 339 334 341 337 338 344 338 337 340 341 337 334 333 332 335 339 334 334 341 340 340 341 339 338 337 340 340 339 340 339 339 339 338 339 340 339 338 337 337 337 337 339 338 339 339 338 338 338 338 337 337 335 335 334 332 331 328 329 330 328 330 329 329 328 327 328 328 328 328 329 329 330 330 330 330 330 328 327 327 327 326 327 327 326 325 325 326 326
327 331 330 329 330 333 338 336 337 339 338 341 339 342 342 336 336 338 343 342 338 336 332 335 340 339 343 341 337 338 338 337 338 338 339 340 340 340 340 339 338 338 339 340 339 338 336 337 336 336 338 338 338 338 338 338 337 337 337 336 334 334 334 332 331 328 328 329 328 330 330 328 327 328 329 327 327 328 328 327 329 329 329 331 329 328 326 327 327 326 327 327 326 325 326 326 325
328 330 336 337 333 334 341 342 341 345 341 334 337 342 338 333 333 334 340 339 334 334 330 335 339 340 345 340 337 337 335 337 336 337 338 339 340 340 340 338 339 339 339 339 339 337 336 337 336 336 337 337 337 338 338 337 337 336 336 335 333 335 333 331 331 329 328 329 328 330 330 329 326 328 330 327 326 327 328 327 327 327 328 331 329 328 326 326 327 326 326 325 326 326 326 326 325
329 333 338 345 344 340 342 342 342 345 338 331 334 335 333 331 331 333 340 336 330 334 332 335 338 337 337 337 343 340 334 337 335 336 338 339 341 341 340 338 339 339 339 339 338 337 335 337 337 336 335 336 337 337 338 337 335 335 335 334 333 334 333 332 330 328 328 328 329 330 330 330 328 328 329 328 327 326 327 327 327 327 327 329 329 328 326 326 326 326 326 325 326 326 325 325 325
329 333 337 344 343 341 344 342 340 341 339 338 334 333 335 332 331 333 339 337 332 335 334 334 334 334 336 338 348 341 335 337 335 337 339 340 341 341 340 338 339 339 339 338 339 337 335 337 336 335 334 335 336 336 335 335 334 333 333 333 334 334 333 332 330 329 329 328 328 329 329 329 329 328 329 329 327 326 328 328 326 326 326 327 327 327 326 326 326 326 326 325 325 325 325 324 324
334 335 338 344 342 340 344 344 344 344 343 340 334 336 338 332 331 333 337 336 332 333 334 333 334 337 338 343 349 341 336 337 336 338 340 340 341 342 340 338 338 338 338 338 339 337 334 335 334 334 333 333 334 333 331 331 333 333 332 332 333 333 333 332 330 329 329 328 328 329 328 328 329 328 329 329 327 326 327 328 326 326 326 326 326 326 326 325 326 326 326 326 325 325 325 324 323
341 342 342 346 344 342 343 344 347 349 345 339 338 338 333 331 332 334 335 333 332 332 332 331 337 346 342 347 349 338 335 337 337 339 340 340 341 342 341 339 338 337 338 338 339 337 334 332 331 329 328 327 326 326 325 327 330 332 332 330 331 331 332 331 329 329 329 329 328 328 328 327 329 328 328 328 327 327 326 327 326 326 325 326 325 325 326 325 325 326 326 326 325 325 324 324 323
336 344 348 349 346 343 342 345 346 348 349 345 342 334 326 329 332 333 335 334 334 333 334 331 335 344 348 356 349 335 334 338 338 339 340 340 341 342 342 340 339 338 338 338 338 338 335 330 327 326 326 324 322 325 325 324 326 330 330 329 330 330 331 330 329 329 329 330 328 328 328 327 329 328 328 327 326 327 326 326 327 326 325 325 325 325 325 325 325 325 325 326 325 325 324 324 324
343 345 349 345 343 343 341 345 346 344 353 350 338 330 325 329 332 336 339 336 334 333 331 331 338 340 345 355 345 336 337 337 338 339 340 340 341 342 342 341 339 339 338 337 337 338 336 328 325 328 329 326 326 328 326 324 324 324 325 327 330 329 329 329 329 329 328 329 329 328 328 327 327 327 329 328 327 327 326 326 326 326 325 325 325 325 325 326 326 325 325 325 325 325 325 325 324
347 345 346 341 338 344 342 343 346 341 350 349 335 330 328 327 329 335 337 335 337 335 327 328 341 341 339 346 348 350 341 335 339 340 340 341 341 341 342 341 340 339 338 338 337 338 337 328 325 330 331 330 330 330 327 325 322 320 321 323 326 328 329 329 330 330 328 329 329 329 329 328 327 327 328 329 327 327 326 325 326 327 325 325 325 325 325 326 326 325 325 324 324 325 325 325 324
341 344 346 346 340 343 342 341 345 344 348 344 332 331 332 329 327 330 331 332 336 331 324 325 334 334 335 343 349 352 340 334 339 340 340 341 341 341 341 341 340 339 338 338 337 338 336 328 327 330 331 332 332 331 328 324 321 320 321 321 322 327 328 328 330 331 328 328 328 330 331 330 328 327 327 327 327 327 327 326 326 326 326 326 325 325 326 326 326 325 325 324 324 324 325 325 324
341 345 344 346 343 342 342 341 344 345 347 343 334 332 336 335 328 327 327 329 330 327 330 329 329 330 337 343 338 336 335 336 339 339 340 340 340 340 340 340 339 339 338 337 337 337 335 328 327 330 331 332 332 332 329 325 322 321 323 323 322 326 327 325 328 331 329 327 328 330 330 330 330 329 328 327 327 326 326 326 326 325 325 325 325 325 326 326 326 326 325 325 324 324 325 324 324
338 341 342 343 343 341 341 343 343 342 345 343 337 333 335 337 331 326 323 326 329 331 340 338 331 335 341 342 334 332 335 337 339 340 340 340 340 339 339 339 338 338 337 337 337 337 335 329 327 329 331 331 332 333 331 328 325 324 325 326 324 326 326 324 325 328 330 328 327 328 330 330 330 329 330 329 328 327 326 326 326 325 324 324 325 325 325 326 326 326 326 325 325 325 325 324 324
335 337 340 341 342 341 341 344 342 337 341 340 337 334 334 335 332 326 322 330 335 331 340 342 339 338 336 336 333 334 335 337 340 340 339 339 340 340 339 338 338 338 337 336 336 337 335 331 328 328 330 331 332 333 332 331 328 326 326 327 327 327 326 325 323 324 327 328 327 327 328 329 328 329 330 330 329 328 327 326 325 326 325 325 326 326 325 325 325 326 326 326 326 325 325 325 325
336 340 338 336 340 340 339 343 342 337 337 338 336 333 333 333 330 327 324 332 335 332 336 341 345 343 338 335 333 334 335 336 339 338 339 339 339 340 339 339 338 338 337 336 336 337 336 333 330 330 331 331 332 333 333 332 331 329 328 328 328 328 328 327 325 322 322 324 326 327 328 327 327 327 329 329 329 329 328 327 326 327 327 325 326 326 325 325 325 325 326 327 326 326 327 327 326
338 341 338 337 339 338 337 339 340 340 337 337 336 333 333 333 329 326 325 329 331 334 337 335 343 352 348 338 333 333 334 335 337 337 338 338 339 340 340 340 339 338 338 337 337 337 337 336 335 334 335 334 333 334 334 333 332 331 331 330 329 329 329 329 328 326 323 322 324 326 327 327 326 327 328 328 328 329 328 327 327 327 328 327 326 326 326 325 325 325 326 327 327 327 328 328 327
336 333 333 339 339 335 336 336 336 339 335 333 335 335 334 332 328 325 325 329 332 335 336 333 338 351 353 341 334 333 332 333 334 335 336 336 338 339 340 340 339 339 338 337 337 337 338 338 337 337 337 337 335 335 335 334 333 332 332 333 331 330 330 329 329 329 327 324 323 324 326 327 326 326 327 327 327 327 327 327 327 327 328 327 327 327 327 325 324 324 325 325 326 326 326 326 326
336 332 330 336 337 333 334 336 336 335 332 333 335 334 332 330 328 327 326 327 333 331 327 330 332 344 353 343 335 333 332 333 333 333 334 334 336 338 339 339 339 339 338 338 337 337 338 338 338 337 337 337 337 336 336 336 334 332 332 333 332 332 331 331 330 330 330 328 326 324 325 325 326 327 327 326 326 325 326 325 325 326 327 327 327 328 328 326 325 324 325 325 325 325 325 324 325
334 334 335 334 331 331 334 336 335 334 333 333 332 329 328 330 329 328 328 326 329 327 324 327 324 332 343 338 334 336 336 335 333 332 333 333 334 336 338 338 339 338 338 338 338 338 337 337 338 338 338 338 338 338 336 335 334 333 333 333 333 333 332 332 332 331 331 330 329 327 326 325 325 326 326 326 326 325 325 325 324 324 326 326 327 327 327 327 325 324 325 325 325 325 325 325 325
331 333 337 334 329 330 334 335 335 336 335 333 329 327 327 330 330 327 328 326 325 325 326 326 320 324 335 337 337 337 336 335 333 333 333 333 334 335 336 337 338 337 338 338 338 338 337 337 337 337 338 337 338 339 337 335 334 335 334 334 334 334 333 333 333 332 331 331 330 329 328 327 326 326 326 325 325 325 324 324 323 324 324 325 326 327 327 327 326 325 325 325 324 325 325 325 325
332 331 335 334 331 330 333 336 336 334 333 331 328 328 329 328 328 327 327 326 326 324 327 334 333 335 340 341 340 336 336 335 332 334 333 334 334 333 334 335 337 337 337 337 337 337 337 337 337 337 337 336 338 338 338 337 335 335 335 335 334 334 333 333 333 333 332 332 331 330 329 329 328 328 327 327 327 327 325 323 322 322 323 323 325 326 326 326 326 326 326 325 325 325 325 325 325
333 330 333 333 333 333 333 336 336 334 331 330 328 329 329 326 325 329 330 328 328 327 333 343 345 348 347 342 339 336 337 336 332 333 333 334 334 333 334 334 335 336 336 337 336 336 336 336 336 337 336 337 337 337 337 337 336 335 335 335 335 335 334 333 333 333 333 332 332 331 330 330 329 328 328 327 328 329 328 327 325 322 321 322 323 323 324 325 325 325 325 325 326 325 325 325 326
334 330 331 331 333 336 335 336 335 334 332 330 329 329 329 325 325 330 333 328 327 329 335 343 347 352 349 341 337 335 336 335 332 333 333 333 333 333 334 334 334 334 336 336 336 336 336 336 336 336 336 337 337 336 336 336 336 336 335 336 335 335 335 334 333 333 333 333 333 332 331 330 330 329 328 327 327 328 328 329 328 326 324 323 323 323 322 323 324 324 324 325 325 325 325 325 326
336 331 331 331 331 336 336 336 336 334 333 332 329 329 329 326 327 328 328 326 326 328 331 338 348 355 350 340 336 335 334 334 333 333 332 332 333 333 333 334 334 333 334 335 336 336 336 336 336 335 336 336 336 336 336 336 336 336 336 335 335 335 335 334 334 334 334 334 334 333 332 332 330 330 329 329 328 328 328 328 329 329 329 328 327 325 324 322 322 322 323 325 325 325 325 326 326
335 332 334 334 332 335 335 336 336 333 333 332 329 330 331 328 329 330 327 325 326 328 330 333 340 347 348 342 338 336 334 333 333 333 333 333 333 333 333 334 334 334 334 334 334 335 336 336 336 336 336 336 336 336 336 336 336 335 335 335 335 335 334 335 335 335 334 334 334 334 334 332 331 330 330 330 330 330 329 329 330 330 330 330 329 328 326 324 322 322 323 324 325 325 326 326 327
333 332 334 337 335 334 334 334 335 333 332 331 330 334 335 331 331 331 328 324 325 327 328 329 331 334 338 340 340 338 335 333 333 333 334 334 334 334 334 334 334 334 334 334 334 334 335 335 336 337 337 336 336 336 336 336 336 335 335 335 334 334 334 334 334 334 334 334 334 334 334 333 332 331 331 331 332 332 331 331 331 330 330 330 330 329 327 325 323 322 324 325 326 326 327 327 327
332 329 331 337 337 335 334 333 334 333 331 329 330 334 336 334 331 332 333 326 324 326 325 326 327 327 328 331 335 337 335 333 333 333 334 334 334 334 334 334 334 334 334 333 334 333 334 334 334 335 336 336 336 336 337 336 336 335 335 335 334 334 334 334 334 334 334 334 334 333 333 333 333 333 332 332 333 333 333 332 332 331 330 330 331 330 328 326 325 324 325 326 327 327 328 328 328
330 330 333 336 335 334 333 332 333 333 331 328 330 335 336 335 330 330 338 333 327 328 326 325 325 324 325 326 327 330 330 328 329 332 334 334 334 334 334 335 335 334 334 334 333 333 333 333 333 334 334 334 335 336 336 336 335 335 335 335 334 335 334 334 334 333 334 334 333 333 333 333 333 333 333 333 334 334 334 333 332 331 331 331 331 331 330 328 327 326 326 327 327 328 328 328 328
330 331 334 334 333 333 331 330 331 331 333 330 330 334 336 336 332 328 333 334 332 332 329 326 324 323 323 324 324 324 324 324 324 325 328 331 332 334 334 335 335 334 335 334 333 333 333 333 333 333 333 333 333 333 334 335 335 335 335 335 335 334 334 334 334 333 333 333 333 333 333 333 333 333 333 333 334 334 334 333 332 332 332 331 331 331 331 330 329 328 328 328 328 328 328 327 327
331 331 332 332 332 332 330 330 330 329 333 333 331 332 333 335 333 329 328 329 331 333 332 328 323 321 322 322 323 324 323 325 324 320 322 326 325 329 332 333 334 334 334 334 334 334 333 333 332 332 332 332 332 332 332 333 333 334 334 335 335 335 334 334 333 334 333 333 333 334 333 333 333 333 333 334 334 334 334 333 333 332 332 332 332 332 331 331 330 329 329 328 328 327 328 327 327
332 331 331 331 330 331 331 330 329 329 331 333 334 333 332 332 331 328 327 328 332 333 331 327 322 322 323 321 321 322 322 326 325 319 322 324 320 321 324 326 330 332 333 334 334 334 333 333 332 332 332 332 332 332 332 332 332 332 332 333 333 334 334 333 334 333 333 333 333 333 333 333 334 334 334 334 334 334 333 333 333 332 332 332 332 331 331 330 330 329 329 329 328 327 327 327 326
331 330 330 330 329 328 329 328 327 328 331 333 334 333 332 332 330 327 325 326 331 333 331 326 323 324 323 322 323 322 322 325 321 317 320 322 320 320 320 320 323 326 330 332 333 333 333 333 333 332 332 332 332 332 332 332 331 331 331 331 331 331 332 332 333 333 333 333 333 333 333 333 334 334 334 334 333 333 333 333 332 332 332 332 331 331 331 330 330 329 329 328 328 327 326 326 326
329 330 330 330 329 328 327 327 326 326 331 333 333 333 332 330 328 325 323 322 325 330 332 330 328 329 327 323 324 324 323 321 317 316 318 318 319 320 320 320 320 320 323 327 330 331 332 333 332 332 333 332 332 332 332 332 331 331 331 331 331 331 331 331 331 331 332 332 332 333 333 333 333 333 333 333 332 332 332 332 332 332 332 331 331 331 330 330 329 329 328 328 327 326 326 326 325
326 329 330 331 330 329 328 327 325 325 330 333 332 333 331 329 327 325 324 324 324 325 330 329 327 330 328 323 324 325 323 320 318 317 317 317 319 319 319 320 319 320 321 323 326 328 330 332 332 332 332 332 333 332 333 332 332 333 332 332 332 331 331 331 331 331 332 332 332 332 332 332 332 332 332 332 332 332 331 331 331 331 331 330 331 330 330 330 329 329 328 327 327 326 326 326 325
327 326 328 330 330 329 329 328 327 327 328 331 332 331 330 328 326 325 325 325 324 324 326 327 324 325 324 323 325 325 324 324 322 319 317 316 318 319 319 319 319 320 320 321 323 325 328 330 331 332 332 333 333 333 333 333 333 333 333 333 333 332 332 332 332 332 332 332 332 332 332 332 332 332 332 331 331 331 331 331 330 330 330 330 330 329 329 329 329 329 328 327 327 326 326 325 325
328 326 326 330 329 329 330 328 327 328 328 330 331 330 329 328 327 326 325 323 323 324 325 325 325 323 322 322 323 323 323 324 323 321 318 316 316 317 318 318 319 319 320 321 322 323 326 327 328 330 331 332 333 333 333 333 333 333 333 333 333 332 333 332 332 332 332 332 332 332 332 332 332 332 332 331 331 331 331 331 330 330 330 329 329 329 329 329 329 328 328 328 326 326 326 325 325
326 325 325 328 328 328 328 327 327 329 328 328 330 331 329 328 328 327 324 324 323 323 324 324 324 324 322 321 322 321 321 322 322 322 321 318 316 316 317 317 318 318 318 319 320 321 323 325 326 327 330 331 332 333 333 333 333 333 332 332 332 332 332 332 332 332 332 332 332 332 332 332 332 332 331 331 331 331 330 330 330 330 330 330 329 329 329 329 329 329 328 328 327 326 326 326 326
325 324 325 326 326 327 328 327 326 329 329 327 328 331 332 329 329 327 324 324 324 322 323 323 323 323 322 322 323 322 321 321 322 321 321 319 316 315 316 316 316 316 317 318 318 319 320 321 323 325 328 330 331 331 332 333 333 333 332 332 332 331 331 331 332 333 333 332 332 332 331 332 332 331 331 331 331 331 330 330 330 330 330 330 329 329 329 329 329 329 328 328 327 327 326 326 326
324 324 325 326 326 326 328 326 325 326 328 326 326 330 332 330 329 329 327 326 325 324 324 323 322 321 321 321 321 321 320 320 320 320 320 319 316 314 315 315 315 315 315 316 316 316 317 318 319 320 322 325 328 330 332 332 333 333 333 332 332 332 331 332 332 333 332 332 332 332 332 332 331 331 331 331 331 331 330 330 330 330 330 330 330 329 329 329 329 329 329 328 328 327 326 325 326
326 324 324 327 327 327 327 326 325 324 323 324 325 326 328 328 327 328 328 327 326 324 323 322 321 320 319 319 318 319 318 318 319 319 319 318 315 313 314 314 314 315 315 315 316 316 316 316 316 317 318 320 323 326 330 332 332 333 332 332 332 332 332 332 332 332 332 332 332 332 332 331 331 331 331 331 331 331 331 331 331 330 330 330 330 329 329 329 329 329 328 328 328 327 327 326 326
324 322 323 325 326 326 326 326 325 323 323 325 325 325 326 325 325 324 323 323 324 322 320 321 320 318 318 317 317 318 317 317 317 318 318 315 313 312 313 313 313 314 315 315 315 316 316 317 317 316 317 318 319 322 326 329 331 332 332 332 332 332 332 333 332 332 332 332 331 332 332 331 331 331 331 331 331 331 331 331 331 330 330 330 330 330 330 329 329 329 328 328 328 327 327 327 326
321 321 323 324 323 324 324 324 325 324 325 326 325 325 324 323 324 323 321 322 323 321 319 318 317 317 317 316 317 317 316 316 317 316 315 312 311 312 312 311 311 310 310 311 311 312 313 315 317 317 317 317 317 318 321 326 329 331 332 332 332 332 332 332 332 332 332 332 331 331 331 331 331 331 331 331 331 330 330 331 330 330 330 330 330 330 330 329 329 329 329 328 328 327 327 327 326
319 323 325 324 324 323 323 322 323 324 325 325 325 325 323 321 323 323 323 324 324 321 319 319 318 318 318 316 316 316 315 316 316 314 312 310 310 310 310 309 309 308 307 307 307 307 308 309 312 314 315 316 317 317 318 322 327 330 331 331 332 332 332 332 331 331 332 331 331 331 332 331 331 331 331 331 331 331 330 330 330 330 330 330 330 330 330 330 329 329 329 328 328 327 327 327 327
320 324 324 323 323 323 323 323 322 323 324 324 325 324 323 323 321 320 323 324 323 322 320 319 320 320 319 317 316 314 313 313 313 313 312 311 310 309 308 308 307 306 306 305 305 306 306 306 307 308 310 312 315 317 317 318 321 326 330 331 331 331 332 332 331 331 332 331 331 331 331 331 331 331 331 331 330 331 330 330 330 330 330 330 330 330 330 330 330 329 329 328 328 327 327 327 327
321 323 322 322 321 321 323 324 322 322 323 323 325 325 324 324 320 320 322 319 320 322 319 318 318 318 318 318 314 312 311 312 312 313 313 312 311 309 308 307 306 305 305 304 304 304 304 305 305 306 306 307 309 313 316 317 318 320 324 328 330 331 331 331 331 331 331 331 331 331 331 331 331 330 330 330 330 330 330 330 330 330 330 329 330 329 329 330 329 329 329 328 328 327 327 327 327
321 321 321 321 319 318 320 321 320 321 322 321 321 323 324 325 322 320 321 320 319 318 317 317 317 317 318 316 312 311 312 312 313 312 312 311 309 307 306 305 304 304 304 304 304 304 304 304 304 305 305 305 305 307 310 313 316 317 319 322 325 328 330 331 331 331 331 331 331 331 331 331 330 330 330 330 330 330 329 329 329 329 329 329 329 329 329 329 329 329 329 328 328 328 328 327 327
319 319 320 320 320 320 320 320 321 321 322 319 318 321 323 327 323 317 319 321 317 314 314 315 315 315 314 312 311 312 311 311 311 310 309 308 306 305 305 304 304 303 303 303 303 303 303 303 304 304 304 305 305 305 305 307 310 313 316 318 320 322 324 327 328 329 330 330 330 330 330 329 329 329 329 329 329 329 329 329 329 329 329 329 328 328 329 329 329 329 329 328 328 328 328 327 327
316 317 320 319 319 322 321 320 322 322 322 320 320 322 323 325 320 315 317 318 313 312 313 313 313 313 313 312 312 312 311 310 309 308 307 306 304 303 303 303 303 302 302 302 302 302 303 303 303 303 304 304 304 305 305 305 306 307 310 313 315 317 319 321 323 324 325 326 326 327 327 328 328 328 328 328 328 328 328 328 328 328 328 328 328 328 328 328 328 328 328 328 328 328 328 327 327
316 315 318 317 317 322 321 319 320 320 320 320 321 322 322 321 318 316 317 316 313 314 314 314 314 313 313 314 313 311 310 309 308 308 307 305 303 302 302 302 302 302 302 302 302 302 302 302 302 303 303 303 304 304 305 305 306 306 306 307 309 311 314 316 317 318 319 320 321 322 323 324 325 326 326 326 326 326 326 326 326 326 326 327 327 327 327 327 327 327 327 328 327 327 327 327 327
317 317 317 314 314 320 320 319 319 318 318 319 320 322 321 320 320 320 319 315 314 315 315 315 316 315 314 313 312 310 308 307 306 306 306 304 302 301 301 301 301 301 301 301 301 301 301 301 301 302 302 302 303 303 304 304 305 305 306 306 306 307 308 310 312 313 314 315 316 317 318 319 319 320 321 321 321 321 321 322 323 323 323 323 324 324 325 325 326 327 327 327 327 327 327 327 327
316 316 314 315 316 318 319 318 317 316 316 318 320 320 320 321 320 320 319 314 313 316 317 316 315 313 312 309 308 307 306 305 304 304 305 303 301 301 301 301 300 300 300 300 300 300 300 301 301 300 301 301 302 302 303 303 304 305 305 305 306 306 306 307 308 310 312 313 313 314 314 315 315 315 315 316 316 316 316 317 318 318 318 319 319 320 321 322 323 324 325 326 326 326 326 326 326
315 315 314 316 318 318 318 316 316 317 317 318 319 318 320 322 318 315 314 313 314 317 316 314 312 310 309 307 307 306 304 304 304 304 304 302 300 300 300 300 299 299 300 299 300 300 300 301 301 300 301 302 302 302 302 303 303 304 305 305 306 306 306 306 307 308 310 311 312 312 312 312 313 313 312 312 313 313 313 313 314 314 315 315 315 316 317 318 319 320 321 323 324 325 325 325 325
315 317 316 317 318 316 316 315 315 318 319 319 318 315 319 324 317 312 312 312 313 314 312 310 309 307 307 307 306 305 303 303 302 302 301 300 299 298 298 298 298 298 298 298 299 299 299 299 300 300 300 301 302 303 303 304 304 304 305 305 305 305 306 306 307 309 310 311 312 312 312 312 311 311 311 311 311 311 311 311 312 312 312 312 312 313 313 314 315 316 317 319 320 322 323 324 324
314 315 314 315 317 315 315 315 314 315 316 316 316 314 319 321 314 311 312 310 310 311 309 309 308 306 306 305 305 304 301 300 299 299 298 297 297 297 296 296 296 296 297 297 297 297 297 297 297 297 298 298 299 300 302 303 304 305 306 306 306 306 307 308 309 310 311 311 311 311 311 311 311 311 311 311 311 311 311 311 311 311 311 311 311 311 311 311 311 312 313 315 316 318 320 321 322
Wind_Speed
19 17 16 10 1 6 2 3 2 2 2 0 2 1 3 4 2 3 5 3 1 2 3 2 4 5 4 2 6 6 4 6 5 5 3 4 2 17 20 6 16 29 32 32 28 27 24 23 22 20 20 19 19 17 17 17 17 17 16 17 17 15 13 12 10 9 9 8 8 9 9 7 8 8 7 6 5 5 6 7 6 6 5 3 3 3 3 5 4 4 4 5 4 3 3 4 3
19 17 14 5 4 4 1 3 2 3 4 1 3 3 4 4 2 4 6 4 3 3 1 3 5 4 4 3 4 3 2 3 4 3 2 3 9 17 16 8 22 31 32 31 29 28 24 24 22 21 20 19 18 18 18 17 17 16 16 16 15 13 12 11 10 9 9 9 8 9 9 7 9 9 8 7 5 5 6 5 4 4 3 3 4 5 5 4 4 3 3 5 6 5 4 4 4
19 17 11 1 3 2 1 3 1 1 3 2 4 4 3 4 4 7 8 7 6 4 2 2 3 4 4 4 2 2 2 2 3 1 1 8 10 15 15 12 26 31 32 31 29 28 25 24 22 21 19 18 18 18 18 18 18 17 17 17 14 12 12 11 10 9 9 9 9 9 10 8 8 9 10 8 7 6 5 4 3 3 3 4 4 5 5 3 2 2 3 4 6 6 5 4 4
19 14 7 2 1 4 3 3 2 4 2 3 3 4 3 3 7 8 7 6 5 3 3 2 1 1 2 1 1 1 2 2 3 3 3 9 10 17 16 18 29 31 32 30 29 28 25 25 22 21 20 18 18 18 18 18 18 17 18 16 14 13 12 10 9 10 11 10 9 10 9 9 7 9 11 10 9 8 6 4 3 3 3 4 4 3 2 2 2 3 3 3 5 6 5 4 4
18 10 6 2 2 1 3 2 2 3 3 4 1 5 5 5 7 6 6 5 4 1 1 2 1 2 1 0 1 0 2 2 2 5 5 9 13 18 18 24 31 30 31 30 29 27 26 26 23 22 20 19 18 18 18 17 17 17 17 15 13 13 12 10 10 10 12 11 10 10 9 9 8 8 11 11 11 9 8 6 5 4 4 5 4 2 3 3 3 3 3 3 4 5 4 4 4
16 6 5 5 3 1 3 1 1 2 5 4 2 5 5 5 5 5 6 6 3 1 1 0 1 1 1 2 1 2 2 2 1 4 7 12 15 19 21 28 31 30 31 30 29 27 26 26 24 23 21 19 18 18 17 17 16 16 15 14 12 13 12 11 10 9 12 12 11 11 10 10 8 8 10 10 11 10 9 8 7 6 6 6 4 4 4 4 3 3 4 4 3 3 4 5 4
13 5 3 5 2 1 3 2 3 3 4 5 4 5 5 5 3 2 6 3 2 2 1 1 0 2 1 2 0 1 2 1 2 2 7 14 17 20 24 29 30 29 30 29 29 27 27 26 25 23 21 19 17 18 17 16 16 15 14 13 12 13 12 11 10 10 12 12 12 12 11 11 9 10 10 10 11 10 10 10 9 8 8 7 5 4 4 5 4 3 4 4 3 4 4 4 4
9 3 1 3 1 2 3 1 3 3 4 3 4 5 7 6 3 2 2 1 0 2 1 1 1 1 3 2 0 2 4 1 4 4 8 17 19 22 26 30 29 28 28 30 29 27 27 26 25 24 22 20 17 18 17 15 15 15 14 12 12 13 12 11 11 11 12 12 13 12 12 12 9 10 10 10 11 10 9 10 11 10 10 7 6 5 4 6 5 4 4 4 4 5 5 5 5
6 3 1 2 1 1 2 1 3 3 4 5 4 6 8 6 4 5 4 2 2 1 2 2 2 0 3 1 2 4 5 3 3 4 12 19 22 23 26 29 29 28 28 29 29 27 27 26 26 25 24 22 19 19 18 16 15 15 15 14 13 14 13 12 12 11 12 12 13 13 13 13 10 11 11 10 11 11 10 10 11 11 11 9 8 6 6 7 6 5 5 5 5 5 6 6 7
4 4 1 2 2 0 2 2 2 3 5 5 5 8 9 4 4 5 5 3 2 0 3 1 3 0 2 1 3 2 5 2 5 10 15 20 23 23 25 27 28 28 27 28 30 28 27 26 26 25 25 24 22 21 19 19 18 17 17 15 15 15 15 14 13 12 12 13 13 14 14 14 12 12 12 11 11 12 11 10 10 10 11 11 9 8 7 7 7 6 6 7 6 6 7 8 8
2 3 2 3 2 1 3 3 3 4 5 5 5 7 6 2 4 3 2 2 2 0 2 2 2 2 2 2 3 2 3 3 9 15 18 21 24 23 24 26 26 27 27 28 29 29 27 26 25 24 24 22 21 20 19 19 19 19 17 16 16 16 15 14 14 13 13 13 14 15 15 14 13 13 14 13 12 12 12 11 10 10 11 12 10 9 9 8 8 8 7 8 8 8 8 9 8
2 2 3 3 2 2 3 2 3 5 6 6 5 5 3 1 3 2 2 2 1 1 3 2 2 3 2 3 4 3 1 7 11 16 19 22 24 22 22 25 25 25 25 27 29 29 27 26 25 24 23 21 20 19 18 18 19 20 18 16 17 16 15 14 14 13 14 14 14 15 16 15 14 14 14 14 13 13 13 12 12 11 11 12 11 11 10 10 10 10 9 9 9 9 9 9 9
2 2 4 1 2 2 2 2 3 3 5 3 3 5 4 0 2 4 5 2 1 1 5 5 3 3 1 3 3 5 2 9 12 16 20 22 25 22 21 24 24 23 23 25 28 28 28 27 26 24 23 21 19 18 18 18 18 19 18 18 18 17 16 15 14 13 14 14 14 14 15 16 16 15 14 14 14 15 15 14 13 12 12 12 12 12 11 11 11 11 11 11 10 10 10 11 11
3 2 4 1 0 1 2 1 2 0 4 4 2 6 5 1 3 3 5 2 4 4 3 3 6 3 1 2 4 5 4 11 13 18 20 22 24 22 22 23 23 23 22 24 26 28 28 27 27 25 23 22 20 18 18 18 18 17 17 18 19 18 17 16 15 15 16 16 15 15 15 16 17 17 16 15 15 16 16 16 14 13 13 12 13 12 12 12 12 12 12 12 12 12 12 12 12
4 2 3 2 1 0 2 2 2 3 3 3 2 6 7 3 1 1 3 4 6 4 2 1 4 3 2 3 3 5 7 13 16 19 20 21 22 21 22 22 23 23 22 22 25 28 29 28 27 25 24 22 21 19 18 18 18 17 16 16 18 18 17 17 18 17 17 17 17 17 18 17 17 18 18 17 17 17 17 17 16 16 15 14 14 13 13 13 12 12 13 14 13 13 13 14 13
3 3 4 2 2 2 3 3 2 3 3 4 3 6 8 7 2 2 3 3 3 3 1 1 1 1 3 6 3 5 9 17 18 20 20 19 19 19 20 21 23 22 22 22 24 27 28 29 28 26 25 23 22 20 19 18 18 18 17 16 17 18 17 18 19 19 18 18 18 19 19 19 19 19 19 20 19 19 18 18 18 18 17 16 15 15 14 14 13 13 15 15 14 14 14 15 14
3 4 2 1 3 3 3 3 3 3 4 4 5 7 6 8 5 2 2 2 1 3 2 1 1 1 4 4 6 2 15 20 20 21 19 18 18 18 18 20 21 21 22 22 23 26 28 29 29 28 26 24 23 21 20 19 18 18 18 17 18 18 18 17 19 20 20 20 20 20 20 19 19 20 21 21 20 19 19 19 19 19 19 18 17 16 16 15 14 15 16 16 15 15 15 16 16
3 3 2 3 3 3 4 4 4 4 2 4 5 6 5 6 8 5 3 3 3 3 3 2 3 2 2 4 3 10 21 22 23 22 19 18 18 18 18 20 21 22 23 24 24 25 27 29 29 28 27 26 24 22 22 20 19 19 19 19 19 19 18 18 18 20 21 22 21 21 21 20 20 20 21 22 21 20 19 19 19 20 20 20 19 18 18 18 17 17 18 17 17 17 17 17 18
2 4 3 4 5 4 5 5 3 3 2 4 4 3 5 6 6 5 4 6 6 3 4 4 4 5 3 4 7 17 21 22 23 22 19 19 20 20 20 21 22 22 24 25 26 25 26 29 29 29 28 26 26 24 23 22 21 20 20 21 20 20 19 18 18 18 20 22 23 23 22 22 21 20 20 21 22 21 20 20 20 20 20 21 20 20 20 21 20 19 20 19 19 19 19 19 20
2 4 4 5 5 4 4 5 4 4 3 2 5 3 4 6 4 3 4 7 6 2 5 2 4 6 3 2 9 15 17 19 20 20 19 18 20 21 22 23 24 23 25 26 26 26 26 28 29 29 28 27 27 26 25 24 23 22 22 22 22 21 20 19 19 18 19 20 22 24 24 23 22 22 21 21 22 22 22 21 21 21 21 22 22 22 22 22 22 22 21 21 21 21 21 22 22
2 4 6 5 5 5 5 6 5 4 4 3 3 5 6 6 3 2 4 6 6 4 5 6 7 6 4 3 6 11 13 15 16 17 17 18 19 20 22 25 25 24 24 25 26 27 27 28 29 29 29 29 29 28 27 26 25 25 24 23 23 23 22 21 20 19 19 20 21 23 24 24 24 23 23 23 23 24 24 24 23 22 22 23 23 24 24 23 23 23 23 23 23 23 24 24 25
2 4 5 6 7 6 5 6 5 4 4 3 1 4 5 4 4 4 2 3 5 4 4 5 7 6 6 7 8 8 9 11 13 15 17 18 19 20 22 23 23 22 22 25 27 28 27 28 29 29 29 29 30 30 29 28 28 28 27 26 25 25 24 23 22 21 20 21 22 22 23 25 26 26 26 26 26 26 26 26 25 24 24 24 24 25 26 25 25 24 24 24 24 25 25 26 26
3 3 2 5 7 5 4 5 4 5 4 1 2 1 2 5 7 4 1 5 7 6 6 5 7 6 8 8 9 9 9 10 13 17 19 20 22 23 24 24 23 23 23 25 26 27 28 28 29 28 29 29 30 31 31 30 30 30 29 28 27 27 26 25 25 24 23 22 22 23 23 25 26 28 28 28 28 28 29 28 27 26 26 27 26 26 28 27 26 26 25 26 26 26 27 27 27
6 5 3 5 5 5 4 5 4 5 3 3 2 1 2 3 5 4 4 9 10 9 7 6 6 4 7 7 8 10 11 12 16 20 22 22 25 26 25 25 24 24 23 24 26 27 28 29 29 29 29 30 30 31 31 32 32 31 30 30 30 29 29 29 28 27 26 24 24 24 25 25 25 27 28 29 29 30 30 30 29 29 29 29 28 28 29 29 28 28 28 28 28 28 28 29 29
8 7 3 3 4 4 4 4 4 3 3 2 2 5 5 4 3 4 9 14 11 8 6 4 2 4 6 7 9 10 9 11 15 17 19 20 21 20 21 23 23 24 25 26 26 27 29 29 30 30 31 30 30 30 31 32 33 32 32 32 32 32 32 31 30 29 28 27 26 26 26 27 27 28 28 29 29 30 31 31 31 32 31 31 31 31 31 31 30 30 30 30 30 30 31 31 31
8 7 4 3 3 4 5 6 5 5 3 1 3 9 8 2 1 5 9 11 7 5 5 4 0 4 5 6 8 9 8 10 13 15 17 18 17 18 21 22 23 26 28 28 28 29 29 29 30 32 32 31 31 30 30 31 32 33 34 34 33 33 33 33 32 31 31 30 29 29 29 29 29 30 30 30 30 31 31 31 32 32 32 33 33 33 33 33 32 32 31 31 31 32 32 32 31
6 9 6 6 4 3 5 6 5 4 2 3 3 9 10 2 1 4 8 9 6 5 6 5 1 4 5 5 6 6 8 11 13 13 13 15 17 21 23 23 26 28 28 29 31 31 29 29 31 32 33 32 32 31 31 31 32 33 34 34 35 35 34 34 34 33 33 33 32 31 30 31 31 31 31 31 31 31 31 31 31 32 33 33 33 33 33 33 34 33 32 32 32 32 33 32 32
6 9 6 7 5 2 3 5 5 3 2 4 5 6 10 4 2 5 8 11 8 5 7 5 3 6 5 5 5 4 7 11 12 11 12 16 21 24 24 27 29 28 29 31 32 30 30 31 31 32 33 33 33 33 32 32 32 32 32 33 34 35 35 35 36 36 35 35 34 33 33 32 32 32 32 32 31 31 31 31 31 32 33 32 32 32 32 32 33 33 33 32 32 33 33 34 33
3 7 4 6 5 5 7 5 4 5 3 5 6 3 9 7 6 7 7 8 7 6 8 6 5 6 5 5 4 4 7 9 10 13 18 22 24 24 26 30 28 27 31 32 30 29 31 32 32 32 32 33 34 34 34 33 33 33 32 33 33 33 33 35 36 36 36 36 35 35 35 34 34 34 34 33 32 32 32 32 33 33 32 32 31 31 31 31 31 32 32 32 33 33 34 35 34
1 2 2 3 3 7 8 6 5 6 4 7 6 4 8 8 7 8 5 2 7 7 8 7 6 5 5 5 4 5 7 7 10 17 23 25 24 23 26 29 27 28 30 28 29 31 32 32 32 32 32 33 34 35 35 34 34 33 33 33 33 33 33 34 35 36 36 35 35 36 36 36 36 36 35 34 33 33 33 34 34 34 33 31 31 30 30 30 30 31 31 32 33 33 35 35 35
2 1 1 2 4 4 5 7 8 6 4 8 7 7 8 6 6 6 3 3 6 7 7 7 6 5 5 4 5 6 6 8 12 18 22 24 24 24 26 28 27 29 29 29 31 32 32 32 32 32 33 34 35 35 36 35 35 34 34 33 33 33 33 34 34 35 35 35 35 35 36 36 37 37 36 35 34 34 35 35 35 34 33 32 32 30 29 29 30 31 32 32 33 34 35 36 36
2 3 3 4 5 2 3 6 11 9 3 7 8 5 6 5 7 5 2 4 5 5 8 7 7 7 6 5 5 6 6 9 13 18 23 25 25 25 27 28 28 30 30 32 33 31 31 32 32 33 33 34 35 36 36 36 36 35 35 34 34 34 34 34 35 35 35 35 35 36 36 36 36 37 36 35 35 35 36 36 36 35 34 33 33 32 31 31 31 32 32 32 34 34 34 35 35
1 5 5 5 6 3 1 3 8 10 4 5 9 5 1 2 5 2 2 4 4 3 9 9 8 8 7 6 5 5 6 8 10 15 21 24 25 27 28 29 29 30 31 32 32 31 32 32 33 34 34 35 35 35 36 36 36 36 36 35 35 35 35 36 36 36 36 36 37 37 37 36 36 36 35 35 35 36 36 37 37 35 34 34 34 33 33 33 32 33 33 33 34 34 34 34 33
3 4 4 4 5 5 2 0 4 6 6 5 9 8 5 3 4 2 1 3 3 3 8 10 8 7 7 6 6 6 6 6 8 11 15 20 23 26 28 29 30 29 30 31 31 31 32 32 33 34 35 35 34 35 35 35 36 36 36 36 36 36 37 37 37 37 38 38 38 38 38 37 37 36 36 35 35 36 36 37 37 35 35 34 34 35 35 34 33 33 34 34 33 33 34 33 33
6 6 5 3 2 4 5 2 3 6 6 6 8 10 9 6 5 4 4 3 4 5 6 7 7 6 7 6 6 6 6 6 10 12 13 19 24 24 25 27 27 28 29 29 30 30 31 32 32 33 34 34 34 34 34 34 34 35 36 35 36 37 38 38 38 39 39 38 39 39 38 37 37 36 36 35 35 36 36 37 37 36 35 35 35 35 35 35 34 34 34 34 33 33 33 33 32
5 6 5 4 3 3 4 2 3 8 6 6 9 9 8 6 6 5 5 3 3 5 5 5 6 5 6 6 6 7 6 7 11 14 13 17 23 23 23 24 24 25 26 27 28 29 30 31 31 32 34 34 33 33 33 32 32 33 33 33 35 37 38 37 38 39 38 38 39 38 37 36 36 36 35 35 35 36 36 37 37 36 35 35 35 35 35 35 34 34 33 33 33 32 33 32 31
2 4 4 5 5 4 3 2 3 5 5 6 8 9 8 6 5 5 4 2 2 4 5 6 6 5 6 7 7 7 7 7 10 14 15 16 17 18 20 20 20 22 23 25 26 28 30 30 30 33 34 32 32 33 33 33 32 32 32 33 37 37 35 35 36 37 37 38 37 36 36 36 35 35 35 35 36 36 37 37 37 36 35 35 36 36 35 35 33 32 31 31 30 30 31 30 27
2 1 4 5 5 4 2 3 3 2 2 4 5 7 9 6 5 5 4 4 5 5 6 7 6 6 5 6 8 9 8 6 7 10 14 16 15 14 16 16 16 18 20 21 23 26 28 27 29 33 32 30 32 34 34 34 36 36 34 35 37 34 33 34 36 36 36 37 36 36 36 36 36 36 37 37 37 37 37 37 37 36 35 35 36 36 35 34 33 32 30 29 28 28 30 28 22
2 1 2 2 3 2 1 1 1 2 1 2 2 5 8 6 6 6 5 6 6 6 7 8 7 6 6 6 7 8 9 9 8 8 10 14 16 16 16 16 15 15 17 19 20 23 24 26 29 32 32 31 33 33 33 36 38 37 36 35 33 31 31 33 34 34 33 35 36 36 36 37 38 38 39 39 38 38 38 37 37 35 35 34 35 35 35 34 34 33 31 30 27 26 29 27 23
2 1 2 2 2 3 1 1 1 2 0 1 0 4 6 5 5 6 8 9 8 8 9 8 7 7 8 7 6 6 8 9 10 10 9 11 15 17 17 16 15 13 15 17 18 20 22 24 27 30 31 32 33 33 34 36 36 34 34 33 31 28 28 28 28 30 31 33 35 35 36 38 38 39 39 38 38 38 37 37 36 35 35 34 34 34 35 35 34 33 31 30 28 26 26 25 24
1 1 2 1 2 2 1 1 2 2 2 2 3 4 6 5 7 8 8 8 8 7 7 7 7 7 7 7 6 7 8 9 10 11 11 10 11 14 15 15 14 14 17 18 19 20 21 23 25 27 29 30 32 32 34 34 32 30 29 27 26 25 25 24 24 29 33 34 35 36 37 38 37 38 38 37 37 37 37 37 36 35 35 35 34 35 36 36 34 33 32 31 30 29 28 25 24
0 2 5 4 2 1 3 4 4 1 2 2 2 3 5 3 6 8 6 6 6 4 4 7 8 7 6 6 8 8 8 8 8 10 12 11 12 15 17 16 14 15 18 20 20 20 21 23 24 26 27 28 31 32 33 32 30 30 28 25 25 25 25 26 29 35 37 35 36 37 36 36 36 36 36 35 36 36 36 36 36 36 36 35 35 35 36 35 34 34 33 32 32 32 30 26 25
1 3 5 7 5 4 4 4 3 0 2 2 2 3 4 2 1 4 4 4 5 4 5 7 7 7 7 7 8 8 8 7 7 8 9 10 12 13 16 18 17 17 20 20 19 19 20 21 22 24 26 28 30 31 31 30 30 30 30 30 30 28 27 30 35 38 37 35 34 35 34 34 34 34 34 34 34 34 34 35 35 35 36 35 35 35 36 36 36 36 34 33 33 32 29 26 27
1 3 3 7 7 6 6 5 4 3 2 2 1 2 4 5 3 3 5 5 6 5 6 7 7 8 8 8 8 7 8 7 6 7 7 8 10 13 16 20 21 21 22 22 20 20 20 20 21 22 24 26 28 29 30 29 30 31 32 33 32 32 31 34 37 36 34 32 31 32 33 32 32 32 32 32 32 33 33 34 34 34 35 35 35 35 37 37 37 36 34 32 32 32 30 30 30
2 1 3 5 5 4 5 5 4 3 2 2 3 4 2 6 4 2 3 4 6 7 7 8 9 8 8 8 8 8 9 7 5 6 7 8 12 17 19 21 24 25 25 24 23 21 20 19 19 20 21 23 25 26 28 29 30 31 32 32 32 33 34 36 36 32 30 29 28 30 31 31 31 31 31 31 31 31 32 32 33 34 35 35 36 36 37 37 36 36 34 33 33 33 33 32 31
3 2 6 5 5 4 3 3 3 3 3 4 5 6 3 5 3 1 1 2 5 6 6 8 8 7 8 8 8 7 6 5 6 6 6 9 14 18 21 24 27 29 29 29 29 28 26 23 20 18 19 20 22 24 26 28 29 30 32 31 32 33 34 34 33 31 30 29 28 29 30 31 31 30 30 30 30 30 31 31 32 34 35 35 36 36 36 37 36 37 36 35 33 33 32 32 32
2 4 5 5 4 4 3 2 2 2 3 4 6 8 4 4 2 2 2 3 4 4 4 6 6 6 8 7 5 5 6 6 7 7 8 12 17 20 24 26 27 29 32 33 32 32 31 30 26 23 22 21 20 22 24 26 27 28 31 32 32 33 33 31 29 29 31 30 29 30 31 32 31 31 30 30 30 30 30 31 32 33 34 35 35 36 36 37 37 37 36 35 34 33 33 32 33
4 4 3 3 2 2 2 2 2 2 4 3 5 8 6 4 4 1 3 4 3 4 4 4 5 6 5 4 5 6 6 6 7 8 8 10 15 19 23 25 26 29 31 32 33 33 33 32 30 28 27 26 23 21 21 22 24 26 28 31 32 33 33 32 29 30 32 31 30 30 31 30 30 30 29 29 30 30 30 31 31 32 33 34 35 35 36 37 36 36 35 34 33 33 33 33 32
4 3 4 3 1 2 1 1 1 2 4 2 4 7 4 6 7 4 8 11 6 5 5 5 6 6 3 6 6 6 6 7 8 7 7 8 9 13 18 22 24 27 29 31 32 33 33 32 31 30 28 28 27 24 22 20 19 22 24 27 29 30 31 31 30 31 32 31 30 28 29 29 29 29 29 30 31 31 31 31 31 31 32 33 34 34 35 35 35 35 34 34 34 33 33 33 34
4 3 3 3 2 1 1 2 1 1 4 3 2 4 0 5 5 3 8 12 7 3 4 4 4 2 4 6 6 7 8 7 6 6 8 8 8 11 16 19 22 25 29 31 32 33 33 32 31 30 29 28 27 26 25 22 18 16 18 21 25 27 28 29 29 30 30 31 30 29 29 29 29 30 30 31 31 30 30 30 30 30 31 31 32 33 33 33 34 34 34 34 34 34 34 34 34
3 3 4 3 3 3 3 3 1 2 3 4 1 2 2 3 2 2 5 6 4 5 3 4 6 6 6 7 7 8 7 6 6 6 7 8 10 14 16 19 21 25 28 31 32 33 34 33 32 30 29 28 28 27 26 25 22 19 15 15 17 21 24 26 27 28 29 30 30 29 29 29 30 30 31 30 29 29 28 28 29 29 30 30 31 31 32 32 33 33 34 33 33 34 33 33 34
1 1 4 1 2 4 2 3 4 3 1 3 1 2 3 4 3 2 0 2 6 7 6 9 9 7 7 7 7 7 7 8 8 8 8 9 12 17 18 20 23 25 28 30 31 33 33 33 33 32 31 30 29 28 27 25 23 21 19 17 15 14 16 19 21 24 25 27 29 29 28 29 29 29 29 28 27 26 26 26 27 27 28 28 29 30 31 31 32 32 32 32 33 33 33 33 33
0 2 3 1 0 5 3 2 2 3 1 2 3 2 3 3 5 5 6 7 7 7 8 8 7 7 8 7 6 7 8 8 8 7 7 9 14 18 20 22 24 26 28 30 31 33 33 33 33 34 36 35 34 32 30 27 25 23 21 20 18 16 14 14 16 18 20 22 23 24 25 25 25 25 25 25 24 23 23 23 24 25 25 25 27 28 29 30 30 31 31 31 32 32 32 33 33
4 1 3 1 3 4 3 1 1 2 2 2 3 4 2 1 3 4 7 8 7 6 6 6 6 7 8 8 7 8 8 8 8 8 8 10 14 19 22 24 27 28 29 30 32 33 34 34 34 34 36 37 37 36 34 32 29 27 24 22 20 18 17 15 14 14 15 17 18 19 19 19 19 19 20 19 19 19 19 20 20 21 22 22 24 25 26 27 28 29 30 30 31 31 31 32 32
4 2 2 3 1 1 2 1 1 1 3 2 2 4 3 3 3 3 5 4 5 5 5 6 7 8 8 8 8 9 9 10 10 10 9 10 14 20 24 27 30 32 32 33 34 34 35 36 36 35 36 36 35 35 35 34 32 30 27 25 23 21 19 18 16 15 14 14 14 14 15 15 14 14 14 14 14 15 15 15 16 17 17 18 20 20 22 23 25 27 28 29 31 30 30 31 31
3 2 2 2 2 3 2 2 2 2 2 2 3 2 2 4 4 1 2 1 5 4 5 6 8 9 8 7 7 8 9 9 8 9 9 10 15 21 25 27 30 32 33 34 35 35 35 36 36 37 37 37 36 35 35 34 33 32 30 28 26 24 22 21 19 17 16 14 13 12 11 11 11 10 10 10 10 11 12 13 13 14 15 15 15 16 17 18 20 23 25 26 28 28 29 31 31
1 1 1 1 0 1 0 0 2 3 2 1 3 2 3 5 3 5 5 3 5 6 8 8 8 8 7 7 7 7 8 8 9 10 10 11 18 24 27 29 30 30 31 33 34 34 35 35 36 36 37 38 39 39 38 37 35 34 33 31 27 25 23 21 18 16 15 13 11 10 10 10 10 10 10 10 10 11 11 12 13 13 13 13 13 13 13 15 17 19 21 23 24 25 27 28 29
4 2 2 2 2 1 0 2 1 2 2 3 3 3 5 4 3 4 4 4 5 7 7 7 7 7 7 7 7 8 9 10 11 11 11 14 19 24 27 29 31 31 32 33 34 34 35 36 36 36 36 38 39 39 40 39 36 34 33 30 27 24 21 18 15 13 11 11 10 10 10 11 11 11 12 12 12 12 12 12 12 12 12 12 12 12 12 13 15 17 18 20 21 22 25 26 26
Wind_Direction
350 350 345 339 72 142 125 66 82 321 82 127 271 219 264 246 274 292 288 288 285 255 227 154 134 135 120 156 183 182 167 169 173 144 211 259 133 165 171 171 170 166 164 167 166 164 166 167 165 164 166 166 166 166 168 167 165 164 167 168 157 156 155 146 147 152 155 154 162 165 157 159 168 164 158 156 151 166 157 146 143 138 137 133 136 126 125 132 132 143 161 177 176 171 155 167 193
349 348 344 350 117 147 231 70 102 330 52 322 278 183 257 310 315 247 245 228 222 265 293 116 108 87 64 68 127 130 174 210 184 170 264 154 134 163 175 179 168 166 165 166 165 165 167 168 167 165 166 168 169 169 170 167 166 166 169 170 160 157 155 151 152 158 163 163 165 169 171 168 174 180 181 181 178 170 156 150 146 139 138 139 138 132 136 137 131 143 162 185 194 196 178 175 190
346 344 350 94 108 58 75 46 102 64 80 259 276 231 269 332 270 245 235 221 244 279 26 75 85 68 45 21 55 116 214 263 171 188 291 152 149 166 178 178 167 166 165 165 165 166 167 168 168 166 167 171 171 172 171 168 167 168 171 170 164 160 160 160 163 170 171 170 170 172 176 170 174 184 185 184 185 176 161 173 173 152 147 150 149 141 148 152 150 177 185 188 191 195 193 184 193
344 344 356 138 95 27 70 37 146 127 140 220 268 258 237 265 272 269 252 249 272 312 18 18 35 69 70 336 307 67 248 293 188 168 157 174 173 169 174 170 166 166 164 166 167 167 168 168 169 167 168 173 174 173 171 169 169 170 171 171 167 162 164 165 167 176 175 174 175 173 176 174 172 183 189 189 190 190 179 197 211 186 174 168 159 147 166 186 184 197 191 177 174 183 193 192 196
342 346 1 64 113 54 93 69 116 126 200 194 194 259 232 233 277 287 277 285 282 286 334 22 7 285 54 185 172 87 252 312 204 173 168 184 176 169 169 166 165 164 164 167 168 168 169 169 171 170 171 174 176 172 172 172 170 171 171 174 169 166 170 167 168 174 175 179 184 179 180 179 175 180 186 190 193 199 195 198 208 205 203 191 179 189 209 201 180 178 172 164 164 176 191 192 193
342 351 24 46 106 130 111 156 182 206 227 177 179 257 248 244 269 289 306 312 293 255 206 155 308 221 17 301 175 177 249 349 183 193 185 176 172 171 167 165 165 164 166 169 170 171 171 172 172 173 174 175 178 174 175 175 173 175 178 181 171 175 183 173 174 178 175 181 188 185 183 181 183 185 185 193 195 201 203 202 206 213 214 205 195 201 208 198 180 174 170 169 172 182 198 201 206
347 350 26 52 58 43 112 190 202 228 248 179 189 254 264 265 249 301 325 334 332 341 137 191 196 115 267 310 265 217 344 261 188 266 201 171 169 171 166 166 166 165 168 171 173 173 173 174 172 174 176 176 179 179 179 178 181 183 186 189 178 187 195 181 179 178 177 181 187 188 189 189 193 194 194 197 197 202 205 204 207 215 221 214 202 203 208 200 195 195 189 184 188 195 203 211 220
359 4 24 82 48 16 106 213 229 215 253 222 221 247 267 270 192 173 289 206 242 308 322 248 72 83 271 358 265 262 12 249 228 283 193 169 169 169 168 169 167 166 170 173 174 176 175 176 174 175 178 179 182 184 185 182 188 191 193 194 186 195 196 186 184 182 183 184 188 192 193 195 196 198 203 198 197 203 203 206 207 217 223 213 210 219 219 205 207 212 213 211 212 220 221 230 229
14 31 53 89 113 21 63 285 269 239 259 269 262 257 272 268 190 181 197 240 280 276 286 245 122 312 258 25 275 275 2 312 231 210 179 171 171 169 170 173 171 169 172 175 176 178 178 178 179 179 180 181 184 189 193 190 195 199 199 198 193 198 197 194 194 193 195 195 196 195 195 199 200 200 205 203 202 205 204 212 212 220 221 209 216 225 219 213 220 222 227 229 228 237 239 244 239
25 27 102 73 98 160 325 278 260 261 257 266 271 268 277 263 191 189 174 231 256 116 297 178 123 18 203 221 273 311 348 313 165 168 174 174 173 170 174 176 177 174 174 177 177 180 181 181 183 184 184 185 187 191 194 193 196 200 202 202 200 202 201 202 204 206 207 207 205 199 197 202 208 205 206 207 208 209 211 217 215 222 218 210 220 224 223 225 230 231 232 234 239 245 244 252 250
33 356 94 75 67 194 247 244 261 269 278 294 291 278 277 234 152 166 134 249 256 122 300 94 130 181 131 283 263 332 338 200 170 168 172 175 175 174 176 178 181 181 179 179 180 183 183 184 186 187 187 189 190 190 194 193 194 199 202 202 203 205 204 208 212 214 211 210 207 201 201 204 209 210 210 212 215 217 217 219 217 221 217 215 224 229 229 229 230 237 239 238 248 251 250 259 259
80 338 62 91 157 208 211 216 269 277 297 312 315 322 320 151 138 176 179 230 335 24 255 187 157 152 110 299 258 319 333 185 183 173 172 176 177 177 179 181 184 185 185 184 184 186 186 186 186 186 187 190 191 192 195 195 197 200 202 202 202 203 203 210 213 210 208 208 206 202 203 205 208 210 215 221 223 221 218 219 218 221 222 221 227 231 233 232 231 237 242 242 248 254 257 263 263
121 141 86 131 188 179 195 217 265 297 312 297 291 318 329 281 228 213 173 184 141 88 263 212 140 99 152 266 277 312 241 190 186 174 174 176 178 180 182 185 186 188 189 188 187 188 189 188 186 186 187 191 195 196 197 198 202 204 205 204 201 200 202 209 207 202 206 208 208 205 205 207 209 211 217 224 226 223 222 223 223 225 229 228 231 236 236 236 236 238 243 246 249 254 258 263 266
142 148 116 169 185 149 191 241 254 190 281 271 289 318 325 277 257 215 153 217 231 187 248 191 133 113 229 278 305 300 209 189 185 177 175 176 180 181 184 187 189 190 192 193 192 191 192 191 189 188 189 192 196 199 201 203 206 206 208 207 201 200 201 206 206 206 208 209 209 210 211 210 212 214 216 222 225 226 228 229 229 229 230 233 236 239 238 239 242 243 246 248 250 254 257 260 264
139 127 96 129 115 256 206 221 192 151 240 284 342 336 335 292 308 359 189 226 255 214 174 126 131 156 202 181 255 274 199 183 182 177 174 176 179 182 186 189 191 193 196 197 195 195 195 195 193 192 193 194 198 201 204 206 208 207 206 205 202 202 204 204 206 212 214 213 213 215 217 216 217 219 219 224 227 228 232 234 234 231 230 233 237 239 240 241 244 246 248 250 251 254 256 258 261
120 108 73 119 178 228 208 205 156 140 245 267 306 352 353 313 333 345 245 192 267 302 57 142 135 128 165 171 244 281 186 174 175 174 172 173 177 181 186 188 191 195 198 199 198 198 198 199 197 196 197 198 201 203 205 207 207 207 204 203 202 205 209 207 205 212 218 218 218 220 222 222 223 224 225 228 231 232 234 237 238 237 235 235 237 241 242 243 245 249 254 255 255 254 257 260 262
91 95 88 169 189 203 193 204 177 164 264 281 329 8 14 321 325 301 269 101 229 311 8 211 238 92 176 218 304 241 167 166 168 168 166 169 172 177 184 188 190 195 199 201 202 202 200 201 201 200 200 201 204 205 207 208 207 206 205 205 205 208 213 214 210 212 219 221 221 224 226 226 226 227 229 231 233 236 238 239 241 243 243 240 239 241 243 244 243 246 251 255 257 256 259 263 263
97 109 151 200 190 199 186 190 186 157 272 300 338 9 26 332 322 326 327 360 360 346 335 335 322 294 217 296 316 154 158 161 164 164 164 168 172 175 182 189 191 195 199 202 205 205 203 204 205 204 204 204 206 208 210 211 209 207 207 208 209 212 215 219 219 218 221 223 223 225 229 231 229 228 230 233 236 240 242 244 245 246 248 245 243 242 243 246 247 247 249 253 258 262 264 263 262
134 129 174 217 193 205 197 183 187 161 230 297 323 0 20 330 305 341 337 316 350 2 302 345 331 291 340 21 131 150 156 161 166 168 170 174 178 180 183 189 193 197 200 202 205 207 207 206 208 208 208 207 208 210 212 213 212 210 212 212 212 215 217 220 223 224 225 226 226 225 230 234 234 233 234 237 241 244 248 250 251 250 250 249 248 247 247 248 251 252 252 256 259 262 264 263 264
168 149 197 228 200 215 222 195 206 190 170 306 313 328 348 316 298 354 337 312 329 269 250 283 279 264 294 33 138 152 158 164 173 175 178 182 186 187 187 191 195 198 201 203 205 207 209 209 210 211 212 211 211 212 214 215 214 214 215 216 216 217 219 222 226 229 229 229 229 228 230 234 238 239 240 243 245 248 251 253 254 253 250 250 250 251 253 253 254 252 252 256 259 260 261 263 265
177 188 200 204 183 204 217 198 209 201 153 156 295 328 326 315 332 349 343 331 313 267 238 224 242 241 206 198 166 164 166 172 182 183 185 189 192 195 196 197 200 202 203 204 206 208 209 211 211 213 214 214 214 214 216 217 217 216 217 219 220 220 221 224 229 233 236 234 232 232 233 235 238 241 242 244 246 248 251 252 253 253 251 251 250 251 255 259 260 257 255 255 258 261 263 264 266
191 220 198 177 167 196 210 187 195 183 145 135 24 334 313 319 335 323 329 288 263 263 282 246 241 226 182 182 176 174 180 185 190 192 193 194 196 199 202 204 205 206 206 206 208 209 211 212 213 214 216 217 216 216 217 220 220 219 218 219 221 221 223 226 231 237 241 241 237 236 236 237 239 241 243 245 247 249 251 253 253 253 253 253 253 253 255 260 262 262 261 260 262 264 266 268 269
217 239 197 187 178 194 199 172 173 134 116 139 129 256 317 353 328 306 237 240 245 262 292 292 271 231 180 170 169 178 190 197 202 201 197 196 199 200 202 204 206 207 207 210 210 211 213 214 215 216 217 218 219 219 218 220 221 222 222 222 223 225 226 227 232 239 243 245 242 240 239 239 240 242 244 246 249 250 252 254 256 255 254 254 254 255 257 259 262 263 263 264 265 266 268 270 271
219 226 202 207 200 203 193 163 164 127 136 220 132 21 315 340 311 321 312 274 267 273 278 285 283 221 169 165 178 190 194 201 210 210 205 203 205 204 204 204 207 209 210 213 214 214 216 216 217 218 219 220 221 221 220 220 221 224 226 227 227 229 230 230 234 240 243 244 245 243 242 241 242 244 246 248 250 253 254 256 257 257 257 256 256 256 257 259 261 262 263 265 265 266 268 269 271
217 217 173 191 211 207 205 180 179 174 206 237 348 314 270 238 258 294 290 278 280 289 289 293 279 158 168 184 192 199 200 209 218 220 220 219 216 212 211 209 209 210 213 216 216 217 219 218 218 218 220 222 223 223 222 223 222 223 226 228 230 230 231 232 235 239 242 243 244 243 243 243 243 245 246 248 251 253 255 257 258 258 258 259 258 257 257 258 260 261 263 265 266 267 269 270 271
211 198 165 179 195 182 207 213 207 212 203 162 312 290 276 249 240 270 267 265 289 334 342 344 55 166 195 205 201 201 204 213 219 223 228 230 227 224 220 217 214 214 217 218 218 220 220 218 219 220 222 223 225 225 224 225 225 225 226 228 230 232 233 235 236 238 241 243 243 243 244 245 246 247 248 249 250 252 255 257 258 259 260 260 260 259 259 260 261 262 263 265 267 268 269 271 273
184 186 190 194 190 180 203 211 205 202 186 155 198 271 280 303 136 268 274 271 291 338 335 343 307 231 229 225 220 210 213 219 219 222 231 233 231 229 226 222 221 221 220 221 223 224 222 220 221 222 223 224 225 227 227 227 227 228 229 229 231 232 234 235 236 239 240 242 244 246 246 247 248 250 252 253 252 253 254 256 258 260 261 262 262 263 263 262 262 263 264 266 268 269 270 273 274
164 178 202 216 214 228 203 198 188 166 197 176 163 260 278 273 185 231 264 281 294 299 289 296 269 259 257 249 238 220 228 229 222 222 229 229 227 227 227 226 225 225 224 225 227 227 227 226 226 225 225 226 226 227 229 228 229 230 231 232 232 233 234 235 237 238 240 241 244 246 247 248 249 251 253 255 256 256 257 258 260 261 262 264 265 266 266 265 265 265 266 268 270 270 271 272 274
153 156 175 209 221 244 212 188 178 169 192 158 140 264 267 248 223 216 240 289 324 311 285 281 257 256 262 259 247 233 239 233 220 223 231 231 230 229 230 231 229 228 230 230 230 229 231 232 232 231 228 227 227 229 230 230 231 232 232 234 234 235 235 237 238 239 241 242 243 245 248 249 251 252 254 257 258 259 260 261 262 263 265 267 268 268 268 267 266 266 266 268 269 269 270 272 274
165 134 157 167 197 244 207 169 164 172 182 148 141 260 249 239 235 216 214 323 356 329 302 294 282 277 267 260 254 247 244 233 221 227 234 237 236 234 235 237 235 234 236 234 233 233 234 235 235 235 232 230 231 232 232 232 233 233 234 235 236 236 236 238 241 242 242 244 245 246 248 249 252 254 257 258 259 259 260 261 263 265 266 268 269 269 269 268 266 265 266 267 268 268 269 272 273
150 131 298 172 194 228 174 161 162 164 196 156 157 256 247 240 244 220 187 64 24 338 311 308 307 305 291 279 269 263 258 243 240 242 244 246 243 240 241 242 240 239 240 238 237 237 236 236 236 236 235 234 234 233 233 234 235 236 236 237 237 237 238 240 242 243 245 246 247 248 249 250 252 254 257 258 258 258 259 261 263 265 266 267 268 269 269 269 267 266 267 267 267 268 269 271 271
120 171 209 200 211 214 155 180 171 165 205 166 166 248 262 250 247 227 171 93 52 334 306 308 305 303 300 288 266 266 274 264 257 256 255 254 251 247 245 245 243 241 241 242 241 240 239 238 238 237 237 237 237 236 236 237 237 238 238 239 239 239 240 242 243 245 247 248 248 249 251 252 253 254 256 256 256 257 258 261 263 265 266 266 267 268 268 268 268 267 267 267 266 267 269 270 271
179 205 201 196 203 200 182 209 186 169 152 181 203 236 282 276 267 239 141 132 114 303 298 301 299 303 306 300 287 273 274 280 271 260 262 264 258 254 251 249 248 246 245 245 244 242 242 241 239 239 239 239 240 239 239 239 239 240 240 241 241 242 242 243 245 246 247 249 249 251 252 253 254 255 256 255 255 256 258 260 263 264 265 265 266 266 266 266 267 267 267 267 266 267 269 270 272
199 206 210 215 197 184 167 173 214 181 148 181 222 242 241 268 313 350 124 161 160 247 281 292 298 304 304 301 298 283 271 281 275 266 282 289 276 265 261 256 253 250 249 249 247 246 246 245 242 242 242 241 240 240 240 241 241 242 242 243 243 244 244 246 247 247 248 249 250 252 253 253 255 255 256 256 255 257 258 259 262 263 263 264 264 265 265 266 266 265 266 267 267 267 268 269 272
192 192 207 214 169 183 186 178 194 183 180 190 208 237 248 256 286 290 274 232 223 251 261 280 295 299 297 297 293 286 275 269 268 270 289 296 289 282 274 268 261 255 252 250 250 249 249 248 246 245 245 242 240 240 240 241 241 241 241 242 243 244 245 246 247 247 248 249 250 252 253 254 255 255 256 255 255 257 258 259 261 261 262 262 263 263 263 263 263 263 264 266 267 267 268 269 271
188 182 190 181 177 204 184 195 201 172 185 211 209 234 248 241 248 251 265 264 244 266 273 274 282 292 299 297 290 285 273 261 268 272 270 274 285 292 287 280 273 264 258 253 251 250 249 249 246 246 247 244 241 239 238 238 237 238 238 239 241 242 243 244 246 247 248 249 251 253 253 254 255 256 256 256 256 257 257 259 260 261 260 260 260 260 260 262 262 263 264 266 267 267 268 269 270
74 151 174 183 199 221 158 185 235 172 183 221 217 241 254 243 245 236 238 271 257 253 266 267 263 274 286 288 289 288 273 258 269 278 276 273 283 294 293 289 281 271 264 256 251 251 250 248 245 247 248 244 240 238 236 234 233 234 233 234 238 240 240 242 245 246 247 249 251 252 254 255 256 257 257 257 257 258 258 259 259 259 258 258 259 259 261 262 262 263 264 265 265 265 267 268 269
44 131 188 191 195 214 199 201 223 148 198 235 215 239 257 255 257 252 242 257 255 232 239 258 254 252 263 276 286 289 286 277 272 277 279 281 284 288 290 290 282 276 272 262 255 256 254 248 247 251 250 244 243 241 236 235 236 235 234 236 239 239 240 242 245 247 249 251 252 252 253 255 256 257 258 258 258 258 257 257 257 257 256 256 258 260 261 261 261 261 261 261 261 262 265 267 266
194 163 168 194 182 178 297 248 168 107 206 246 232 246 258 258 247 243 233 235 245 229 226 242 247 248 253 255 265 278 289 295 289 277 275 281 287 288 286 284 283 282 279 271 264 263 257 251 252 254 251 247 248 245 239 241 242 239 237 239 241 241 243 246 249 252 253 254 255 254 255 256 256 257 258 257 256 256 256 256 256 256 256 255 256 258 258 258 257 257 256 256 257 260 264 264 259
200 141 161 205 161 149 249 268 65 43 297 189 310 280 264 260 263 255 240 235 240 235 232 240 243 244 252 257 260 264 274 285 290 289 283 279 282 286 286 287 292 290 283 278 271 267 262 258 258 259 254 250 250 247 245 247 245 242 241 242 243 245 249 251 253 255 255 256 256 255 257 257 256 257 257 255 254 255 254 255 255 255 255 255 254 254 255 256 255 254 253 252 252 253 258 260 258
132 120 198 185 102 125 143 37 4 357 336 50 40 307 275 233 234 249 245 234 237 239 239 254 258 250 254 271 272 256 254 266 278 286 288 286 284 288 292 296 300 295 291 291 287 281 275 272 270 267 261 256 255 253 252 251 244 241 241 240 240 242 246 247 247 251 251 251 253 255 258 258 256 257 256 254 255 255 254 254 255 254 255 254 253 253 254 255 255 254 253 251 248 247 251 258 258
264 186 189 164 144 163 103 64 23 7 262 5 46 274 272 214 213 242 252 241 245 248 244 253 263 264 259 265 265 256 249 248 255 270 282 292 296 299 303 310 315 313 312 312 308 301 294 289 285 279 273 267 264 262 258 251 243 239 235 231 230 231 235 236 237 245 247 247 251 256 258 258 256 257 257 256 256 256 256 255 254 254 255 254 253 253 254 255 254 254 253 250 247 247 248 253 256
260 240 188 169 172 183 143 103 56 97 243 348 29 242 274 321 215 234 248 264 270 260 252 256 257 259 254 248 254 256 257 254 249 257 269 284 299 314 323 334 344 340 335 332 326 319 311 303 297 289 284 277 273 269 262 253 245 240 234 231 232 230 232 237 241 246 249 249 253 256 258 259 259 259 259 259 258 258 258 257 256 255 255 254 253 252 254 255 255 255 253 249 249 248 244 244 252
246 288 171 164 164 171 171 151 151 188 229 311 282 209 272 288 258 209 205 239 269 259 254 260 252 251 250 250 255 257 262 265 265 275 288 304 330 348 345 344 350 350 347 345 340 334 326 317 310 301 292 284 279 274 266 257 249 243 238 235 236 236 237 243 248 250 251 252 253 256 260 261 261 262 262 261 261 260 260 259 258 256 255 255 254 251 253 256 255 255 254 250 249 248 242 240 247
235 302 103 142 145 149 164 156 160 170 178 244 201 153 243 271 254 239 198 208 251 255 245 251 252 254 257 258 261 262 266 278 301 320 331 343 354 357 354 356 3 8 8 5 2 358 350 339 326 315 304 294 286 279 270 260 253 248 243 238 237 240 241 246 250 252 254 255 255 258 261 262 263 263 263 263 262 262 261 261 260 257 256 257 255 253 255 256 254 254 253 250 247 246 244 242 244
207 120 77 73 70 70 101 137 144 146 186 232 193 162 223 268 229 185 59 196 240 247 242 248 254 259 261 263 266 276 300 331 354 3 2 4 5 6 12 19 20 20 20 19 19 18 14 7 354 337 325 313 301 290 278 267 258 251 245 241 239 242 244 247 250 253 255 256 258 259 261 263 263 264 264 264 263 263 262 262 260 258 258 258 256 255 255 255 255 254 253 251 248 247 246 244 243
101 75 60 52 56 57 57 75 104 146 232 242 190 172 193 274 249 173 171 203 212 229 252 260 264 264 264 273 298 341 3 2 5 17 20 22 26 26 27 25 20 17 17 17 17 15 15 14 9 3 355 344 325 306 291 277 265 255 247 244 242 244 246 247 248 251 254 255 256 258 261 263 264 264 265 265 265 264 264 262 261 260 260 258 257 256 256 256 256 256 255 253 250 248 247 246 245
77 69 80 71 31 43 62 38 66 162 247 252 182 168 172 235 269 271 269 267 211 215 255 262 260 265 276 321 5 18 21 19 22 29 29 32 33 28 25 20 14 12 11 11 11 10 10 10 8 7 6 3 353 334 312 292 275 262 255 250 247 246 247 247 247 250 253 254 255 257 261 263 263 264 264 264 265 266 265 263 261 260 259 257 257 257 257 258 258 256 255 253 251 249 248 247 246
85 86 86 85 18 19 92 171 109 203 260 284 156 152 165 236 253 266 277 280 267 237 249 252 256 272 333 18 25 28 37 43 43 42 36 33 29 22 19 15 10 8 6 5 5 5 5 6 7 5 4 4 3 357 345 324 296 275 265 259 255 252 251 250 250 252 254 256 257 258 260 262 263 264 264 264 268 269 267 265 264 263 262 262 261 260 259 259 258 256 254 252 252 251 249 247 246
132 134 122 120 126 80 220 211 93 238 269 321 113 138 189 278 266 239 254 272 288 296 275 271 282 334 49 52 52 53 52 52 46 42 38 30 24 19 15 11 6 3 1 1 0 0 360 2 3 2 2 3 4 4 1 354 337 310 286 273 265 261 258 256 256 257 259 260 260 260 261 262 262 264 265 268 271 273 271 270 270 268 268 267 266 264 263 262 259 257 255 253 252 252 251 250 248
166 165 137 138 156 158 193 196 169 237 278 330 12 141 191 236 226 169 222 264 343 12 359 43 51 63 80 71 60 54 45 39 35 35 36 28 21 16 11 7 3 360 358 357 357 356 356 356 357 356 357 1 3 4 4 3 0 351 334 309 288 274 267 264 263 263 264 265 266 266 265 265 265 266 268 271 274 275 274 274 274 272 272 271 269 267 265 264 262 259 257 255 255 255 253 252 251
248 135 108 132 184 143 156 191 166 168 296 327 287 216 228 227 262 306 246 357 26 32 39 61 62 61 70 60 47 45 34 26 22 20 21 18 16 13 8 2 359 357 356 355 354 354 353 353 353 352 352 355 358 1 2 3 2 2 360 351 335 313 292 281 277 275 274 273 272 271 270 270 270 271 272 273 274 273 273 273 272 272 273 272 271 270 267 266 264 260 258 256 256 257 255 254 253
210 106 139 206 102 112 124 260 141 115 276 263 175 228 294 302 304 334 47 49 36 39 45 55 56 51 57 51 37 33 27 21 18 16 12 7 7 5 2 359 356 354 353 352 353 353 352 352 352 351 351 352 353 354 357 359 358 358 1 1 358 349 332 314 300 293 289 284 280 278 276 276 276 275 276 276 276 275 274 273 272 271 272 271 271 270 269 269 267 263 260 258 258 259 257 255 255
113 152 190 142 29 76 105 256 21 82 254 243 161 200 271 331 282 329 38 51 37 35 40 43 45 46 46 37 25 22 19 15 13 14 8 3 3 360 357 356 354 353 352 352 353 354 355 355 354 353 351 350 350 350 351 352 352 351 352 354 356 354 349 339 324 311 302 295 291 289 287 287 287 286 285 283 283 282 280 278 277 276 275 273 272 271 271 270 269 267 264 263 263 262 259 258 257
119 176 176 108 86 57 96 164 187 191 237 269 226 212 220 204 223 318 358 39 54 36 32 39 36 33 34 26 19 14 12 11 8 5 2 0 359 356 354 353 353 354 355 355 356 358 359 359 358 356 353 351 350 350 348 347 346 345 344 343 344 345 345 341 334 325 317 311 307 304 301 298 297 297 294 291 290 289 289 287 284 282 280 277 275 274 273 272 270 268 267 266 266 264 260 259 259
45 65 39 58 134 161 156 157 148 159 201 273 290 256 238 235 211 193 290 127 96 60 30 37 32 26 24 20 16 13 11 8 1 357 356 355 356 358 359 358 357 358 359 360 1 2 3 4 3 2 359 357 354 352 349 345 341 340 339 337 336 336 337 334 330 325 321 321 321 318 314 311 311 311 308 307 307 306 305 300 295 291 287 285 284 282 280 278 274 271 269 267 267 265 261 260 261
84 76 18 347 87 131 82 355 123 126 141 210 266 271 267 256 196 165 190 151 90 52 33 30 23 22 20 14 11 6 7 5 2 3 1 1 3 5 6 5 4 4 3 3 3 4 4 4 5 4 3 2 358 355 353 349 344 341 338 335 332 331 331 329 327 324 321 322 325 326 327 328 333 336 334 332 330 328 321 312 305 299 296 296 295 295 295 291 285 280 275 272 270 267 263 261 262
146 149 189 184 164 114 312 271 192 113 137 173 200 247 264 253 190 170 168 102 54 36 45 34 9 9 11 9 5 2 9 14 14 15 13 11 11 9 7 6 5 4 3 2 3 3 1 360 0 0 1 0 358 355 355 352 350 349 346 342 336 331 328 325 324 327 328 331 336 337 336 336 338 338 336 334 333 331 327 321 313 307 306 306 303 305 307 302 295 290 284 280 275 270 267 265 263